Probability
0 0 0 0 0 0 0 0 0 0 0 0 0 0 0 0 0 0 0 0 0 0 0 0 0 0 0 0 0 0 0 3 3 3 3 3 3 3 0 0 0 0 0
0 0 0 0 0 0 0 0 0 0 0 0 0 0 0 0 0 0 0 0 0 0 0 0 0 0 0 0 0 3 3 0 0 3 3 3 3 3 0 0 0 0 0
3 0 0 0 3 3 0 0 0 0 0 0 0 0 0 0 0 0 0 0 0 0 0 0 0 0 0 0 0 0 3 0 0 0 0 0 3 3 0 0 0 0 0
6 6 6 0 3 3 0 0 0 0 0 0 0 0 0 0 0 0 0 0 0 0 0 0 0 0 0 0 0 0 0 3 0 3 0 0 0 0 0 0 0 0 0
0 0 3 0 0 0 0 0 0 0 0 0 0 0 0 0 0 0 0 0 0 0 0 0 0 0 0 0 0 0 0 0 0 3 0 0 0 0 0 0 0 0 0
0 0 0 0 0 0 0 0 0 0 0 0 0 0 0 0 0 0 0 0 0 0 0 0 0 0 0 0 0 0 0 0 0 0 0 0 3 0 0 0 0 0 0
0 0 0 0 0 0 0 3 0 0 0 0 0 0 0 0 0 0 0 0 0 0 0 0 0 0 0 0 0 0 0 0 0 0 0 0 0 0 0 0 0 0 0
0 0 0 0 0 0 0 3 3 0 0 0 0 0 0 0 0 0 0 0 0 0 0 0 0 0 0 0 0 0 0 0 0 0 0 0 0 0 0 0 0 0 0
3 0 0 0 0 0 0 0 0 3 3 0 0 0 0 0 0 0 0 0 0 0 0 0 0 0 0 0 0 0 0 0 0 0 0 0 0 0 0 0 0 0 0
3 3 3 0 0 0 0 0 0 0 0 0 0 0 0 0 0 0 0 0 0 0 0 0 0 0 0 0 0 0 0 0 0 0 0 0 0 0 0 0 0 0 0
0 3 3 3 3 3 3 3 0 0 0 0 0 0 0 0 0 0 0 0 0 0 0 0 0 0 0 0 0 0 0 0 0 0 0 0 0 0 0 0 0 0 0
0 0 0 3 3 3 3 3 0 0 0 0 0 0 0 0 0 0 0 0 0 0 0 0 0 0 0 0 0 0 0 0 0 0 0 0 0 0 0 0 0 0 0
0 0 0 0 0 0 0 0 0 0 0 0 0 0 0 0 0 0 0 0 0 0 0 0 0 0 0 0 0 0 0 0 0 0 0 0 0 0 0 0 0 0 0
0 0 0 0 0 0 0 0 0 0 0 0 0 0 0 0 0 0 0 0 0 0 0 0 0 0 0 0 0 0 0 0 0 0 0 0 0 0 0 0 0 0 0
0 0 0 0 0 0 0 0 0 0 0 0 0 0 0 0 0 0 0 0 0 0 0 0 0 0 0 0 0 0 0 0 0 0 0 0 0 0 0 0 0 0 0
0 0 0 0 0 0 0 0 0 0 0 0 0 0 0 0 0 0 0 0 0 0 0 0 0 0 0 0 0 0 0 0 0 0 0 0 0 0 0 0 0 0 0
0 0 0 0 0 0 0 0 0 0 0 0 0 0 0 0 0 0 0 0 0 0 0 0 0 0 0 0 0 0 0 0 0 0 0 0 0 0 0 0 0 0 0
0 0 0 0 0 0 0 0 0 0 0 0 0 0 0 0 0 0 0 0 0 0 0 0 0 0 0 0 0 0 0 0 0 0 0 0 0 0 0 0 0 0 0
0 0 0 0 0 0 0 0 0 0 0 0 0 0 0 0 0 0 0 0 0 0 0 0 0 0 0 0 0 0 0 0 0 0 0 0 0 0 0 0 0 0 0
0 0 0 0 0 0 0 0 0 0 0 0 0 0 0 0 0 0 0 0 0 0 0 0 0 0 0 0 0 0 0 0 0 0 0 0 0 0 0 0 0 0 0
0 0 0 0 0 0 0 0 0 0 0 0 0 0 0 0 0 0 0 0 0 0 0 0 0 0 0 0 0 0 0 0 0 0 0 0 0 0 0 0 0 0 0
0 0 0 0 0 0 0 0 0 0 0 0 0 0 0 0 0 0 0 0 0 0 0 0 0 0 0 0 0 0 0 0 0 0 0 0 0 0 0 0 0 0 0
0 0 0 0 0 0 0 0 0 0 0 0 0 0 0 0 0 0 0 0 0 0 0 0 0 0 0 0 0 0 0 0 0 0 0 0 0 0 0 0 0 0 0
0 0 0 0 0 0 0 0 0 0 0 0 0 0 0 0 0 0 0 0 0 0 0 0 0 0 0 0 0 0 0 0 0 0 0 0 0 0 0 0 0 0 0
0 0 0 0 0 0 0 0 0 0 0 0 0 0 0 0 0 0 0 0 0 0 0 0 0 0 0 0 0 0 0 0 0 0 0 0 0 0 0 0 0 0 0
0 0 0 0 0 0 0 0 0 0 0 0 0 0 0 0 0 0 0 0 0 0 0 0 0 0 0 0 0 0 0 0 0 0 0 0 0 0 0 0 0 0 0
Height
5829 5831 5833 5835 5836 5837 5839 5840 5840 5841 5842 5842 5842 5842 5842 5842 5841 5841 5840 5840 5839 5838 5837 5836 5835 5833 5832 5830 5828 5827 5825 5823 5820 5818 5815 5813 5810 5807 5804 5801 5798 5794 5791
5823 5825 5827 5828 5830 5831 5833 5834 5835 5835 5836 5836 5836 5836 5836 5836 5835 5835 5834 5834 5833 5832 5831 5830 5829 5827 5826 5824 5822 5821 5819 5817 5814 5812 5809 5807 5804 5801 5798 5795 5791 5788 5785
5816 5818 5820 5822 5823 5825 5826 5827 5828 5829 5830 5830 5830 5830 5830 5829 5829 5828 5828 5827 5826 5825 5824 5823 5822 5821 5819 5818 5816 5814 5812 5810 5808 5805 5803 5800 5797 5794 5791 5788 5785 5781 5778
5809 5811 5813 5815 5816 5818 5819 5821 5822 5823 5823 5823 5823 5823 5823 5823 5822 5822 5821 5820 5819 5819 5817 5816 5815 5814 5812 5811 5809 5807 5805 5803 5801 5798 5796 5793 5790 5787 5784 5781 5778 5774 5771
5801 5803 5806 5807 5809 5811 5812 5813 5814 5815 5815 5816 5816 5816 5816 5815 5815 5814 5813 5813 5812 5811 5810 5809 5808 5807 5805 5803 5801 5800 5798 5795 5793 5791 5788 5785 5783 5779 5776 5773 5770 5767 5764
5793 5796 5798 5800 5802 5803 5805 5805 5806 5807 5807 5808 5808 5808 5808 5808 5807 5807 5806 5805 5804 5804 5803 5802 5800 5799 5797 5795 5793 5792 5790 5788 5785 5783 5780 5777 5775 5772 5769 5766 5762 5759 5756
5786 5788 5790 5792 5794 5795 5796 5797 5798 5799 5799 5799 5800 5800 5800 5799 5799 5799 5798 5797 5796 5795 5794 5794 5792 5791 5789 5787 5785 5783 5781 5779 5777 5774 5772 5769 5766 5764 5761 5757 5754 5751 5748
5777 5780 5782 5784 5785 5787 5787 5788 5789 5790 5790 5791 5791 5790 5791 5791 5791 5790 5789 5789 5788 5787 5786 5785 5784 5782 5780 5778 5776 5774 5773 5770 5767 5765 5762 5760 5757 5755 5752 5749 5746 5743 5741
5768 5771 5772 5774 5775 5777 5778 5779 5779 5780 5781 5781 5781 5781 5781 5781 5781 5781 5780 5779 5779 5778 5777 5775 5774 5773 5771 5769 5767 5765 5763 5761 5758 5756 5753 5751 5748 5746 5743 5740 5737 5734 5732
5758 5761 5762 5764 5765 5766 5767 5768 5769 5770 5770 5771 5771 5771 5771 5771 5771 5771 5771 5770 5769 5768 5767 5766 5764 5763 5761 5759 5757 5755 5753 5751 5748 5746 5743 5741 5739 5736 5733 5731 5728 5726 5723
5748 5750 5751 5753 5754 5755 5756 5757 5758 5759 5759 5760 5760 5760 5760 5760 5759 5760 5760 5760 5759 5758 5757 5756 5754 5752 5751 5749 5747 5745 5743 5741 5738 5736 5733 5731 5729 5727 5724 5722 5719 5717 5715
5737 5739 5740 5741 5743 5743 5744 5745 5746 5747 5747 5747 5748 5748 5748 5748 5749 5748 5749 5749 5748 5747 5746 5745 5744 5742 5741 5739 5737 5735 5733 5731 5728 5726 5724 5721 5719 5717 5714 5712 5710 5708 5706
5726 5727 5728 5729 5730 5731 5731 5732 5732 5733 5734 5734 5735 5736 5736 5737 5737 5737 5737 5737 5737 5737 5735 5734 5733 5732 5730 5729 5727 5725 5723 5720 5718 5716 5714 5712 5710 5707 5705 5703 5701 5699 5697
5715 5715 5716 5717 5718 5719 5719 5719 5719 5720 5720 5722 5723 5723 5724 5725 5725 5725 5726 5726 5726 5726 5725 5724 5722 5721 5720 5718 5717 5715 5713 5710 5708 5706 5704 5702 5700 5698 5695 5693 5691 5690 5689
5703 5704 5704 5705 5705 5706 5706 5706 5706 5706 5707 5708 5710 5711 5712 5713 5712 5713 5713 5714 5714 5714 5714 5713 5711 5710 5709 5707 5706 5704 5702 5700 5698 5696 5694 5692 5690 5688 5686 5684 5683 5681 5680
5692 5692 5692 5693 5693 5693 5693 5693 5692 5693 5693 5695 5697 5699 5700 5700 5700 5701 5701 5702 5702 5702 5702 5702 5700 5699 5698 5697 5695 5694 5692 5690 5688 5686 5684 5682 5680 5679 5677 5675 5674 5673 5672
5679 5679 5679 5679 5679 5679 5679 5679 5679 5680 5681 5682 5684 5686 5687 5688 5688 5689 5689 5689 5689 5689 5690 5690 5689 5688 5687 5685 5684 5683 5681 5679 5677 5676 5674 5673 5671 5669 5668 5667 5665 5664 5664
5667 5666 5666 5666 5665 5665 5665 5665 5666 5667 5668 5669 5671 5673 5675 5675 5676 5676 5677 5677 5677 5677 5678 5678 5677 5676 5676 5675 5673 5672 5671 5669 5667 5666 5664 5663 5662 5661 5659 5658 5657 5656 5656
5654 5654 5653 5653 5652 5651 5651 5652 5653 5654 5655 5656 5658 5660 5661 5662 5663 5664 5664 5665 5665 5666 5666 5666 5666 5665 5665 5664 5663 5662 5660 5659 5658 5656 5655 5654 5653 5652 5651 5650 5649 5648 5648
5641 5641 5640 5640 5639 5639 5639 5640 5640 5641 5642 5643 5645 5647 5648 5649 5650 5651 5652 5653 5653 5654 5654 5655 5655 5655 5654 5653 5652 5651 5650 5649 5648 5647 5646 5645 5644 5643 5642 5641 5641 5640 5640
5629 5628 5628 5627 5627 5627 5627 5628 5628 5629 5630 5631 5632 5634 5635 5636 5638 5639 5640 5641 5642 5642 5643 5643 5644 5644 5644 5643 5642 5641 5640 5639 5639 5638 5637 5636 5635 5635 5634 5633 5633 5633 5633
5617 5616 5615 5615 5615 5615 5615 5616 5616 5617 5618 5619 5620 5621 5622 5624 5626 5627 5628 5629 5630 5631 5632 5633 5633 5633 5633 5633 5632 5631 5630 5630 5629 5629 5628 5627 5627 5626 5625 5625 5625 5625 5625
5605 5604 5603 5602 5603 5603 5603 5604 5604 5605 5606 5607 5608 5610 5611 5613 5614 5616 5617 5618 5620 5620 5621 5622 5623 5622 5622 5622 5622 5621 5621 5620 5620 5619 5619 5618 5618 5618 5617 5617 5617 5618 5618
5593 5592 5591 5590 5590 5591 5592 5593 5593 5594 5594 5595 5597 5599 5601 5602 5604 5605 5607 5608 5609 5610 5611 5611 5612 5612 5612 5612 5612 5611 5611 5611 5610 5610 5610 5610 5610 5610 5609 5609 5610 5610 5611
5581 5580 5579 5579 5579 5579 5580 5581 5582 5583 5584 5586 5587 5588 5590 5591 5593 5595 5596 5598 5599 5599 5600 5601 5601 5601 5602 5602 5602 5602 5602 5601 5601 5601 5602 5602 5601 5601 5602 5602 5603 5603 5604
5569 5568 5568 5567 5568 5568 5569 5570 5571 5573 5574 5576 5577 5578 5580 5581 5583 5585 5586 5587 5588 5589 5590 5590 5591 5591 5591 5592 5592 5592 5592 5592 5592 5593 5593 5593 5593 5594 5594 5595 5596 5596 5597
Wind_Speed
35 33 32 31 30 30 29 28 28 27 27 27 27 28 28 28 28 28 28 29 29 29 29 29 29 29 29 30 30 31 30 31 32 32 32 33 34 34 35 35 36 36 35
36 35 34 33 32 32 31 31 30 30 30 29 29 29 30 30 30 30 30 31 31 30 30 30 31 31 31 32 32 32 32 32 33 33 33 34 35 35 36 36 36 35 35
39 38 37 36 35 34 33 32 32 32 31 31 31 31 31 31 31 31 32 32 32 32 32 32 32 33 33 33 32 33 33 33 34 34 34 35 36 36 36 36 36 36 36
39 39 39 39 37 36 35 34 33 33 33 33 33 33 32 32 33 33 33 33 34 34 34 34 34 34 34 34 34 34 35 35 35 35 36 37 37 37 37 37 37 36 36
41 41 41 39 38 37 36 36 35 35 35 35 35 34 34 34 35 34 34 34 35 35 34 34 34 34 35 35 35 35 36 36 37 37 37 38 38 38 38 38 37 37 36
41 40 39 39 38 37 38 38 37 38 37 37 37 36 36 36 37 36 36 36 36 36 35 35 35 35 35 36 37 37 37 38 38 38 39 39 39 39 39 39 38 37 37
42 41 40 39 39 39 39 39 39 39 39 39 39 39 39 39 38 38 38 37 37 37 36 36 36 36 37 37 37 38 38 39 39 39 39 39 39 40 40 40 39 38 37
42 42 42 42 41 41 42 41 41 41 41 41 41 41 41 40 40 39 38 38 38 38 38 37 37 37 38 38 38 39 39 39 40 40 40 40 40 40 41 40 39 38 37
44 45 45 45 45 45 45 44 44 43 43 42 42 42 42 42 41 40 40 40 39 38 38 39 39 39 39 39 39 39 39 39 40 41 41 41 41 41 41 40 39 39 38
46 47 47 47 47 47 47 46 47 46 46 45 44 44 44 42 41 41 41 41 40 40 40 40 40 41 40 39 39 39 39 40 41 41 41 41 42 41 40 39 39 38 38
48 49 49 49 49 49 49 48 48 48 48 47 47 46 46 44 44 43 42 41 42 41 41 41 40 40 40 41 40 40 41 42 42 42 42 42 42 41 40 39 39 38 37
46 48 49 50 49 48 49 49 49 49 48 48 47 47 46 45 44 43 43 42 41 41 41 41 41 41 42 41 41 41 41 41 42 42 42 42 41 41 40 39 38 37 36
43 46 47 48 48 48 48 49 48 48 48 47 46 45 45 45 44 44 44 42 41 42 42 41 41 41 41 41 41 41 41 41 42 42 41 41 40 40 40 39 38 37 35
43 44 46 47 48 48 48 48 49 49 49 48 46 46 45 45 45 44 44 44 43 43 42 42 41 42 41 41 41 40 40 41 42 41 40 40 40 39 38 38 36 35 34
42 43 45 46 46 47 48 49 49 49 49 48 49 48 46 46 46 45 45 45 44 43 42 41 42 42 41 40 40 40 41 41 41 41 40 39 39 38 37 36 35 34 33
42 43 46 47 47 47 47 48 48 48 48 48 48 48 48 46 45 46 47 46 44 44 42 42 41 40 40 39 39 40 41 40 40 40 39 38 37 36 35 35 34 33 32
42 44 45 46 47 48 48 48 47 46 47 48 49 48 47 46 45 45 44 44 43 42 42 41 40 40 39 39 39 40 40 39 39 38 37 37 36 34 34 34 33 32 31
42 43 44 45 46 47 48 47 47 47 46 46 46 47 46 46 45 44 44 43 43 43 42 40 40 40 40 39 39 39 39 38 37 36 35 35 34 34 33 33 32 30 28
42 42 42 44 46 46 46 46 46 46 46 46 47 47 47 47 45 45 45 44 43 42 41 40 39 39 39 39 38 38 38 37 36 35 34 33 33 33 33 32 30 29 28
43 44 44 44 44 44 44 45 46 45 45 45 46 46 47 46 45 44 44 42 40 39 38 38 39 39 38 38 38 37 36 35 35 34 34 33 33 32 32 31 29 28 26
43 44 44 44 43 43 43 43 43 44 44 44 44 44 45 46 45 44 42 40 39 39 38 37 38 38 37 37 36 36 35 34 34 33 33 33 32 32 31 29 28 26 26
42 43 43 43 42 42 42 41 42 42 43 43 42 42 42 42 42 41 39 37 36 37 36 37 37 37 36 36 35 35 34 34 33 33 32 32 31 30 29 28 27 26 25
40 41 41 40 41 40 39 39 39 40 41 40 39 39 39 39 39 38 37 36 36 35 35 36 36 36 35 35 34 34 34 33 32 32 31 30 29 28 27 26 26 25 24
39 38 37 37 37 36 36 36 37 37 38 37 37 37 37 37 36 36 36 36 35 35 35 35 36 35 35 34 34 34 33 32 31 30 29 29 28 27 26 25 24 23 23
38 38 36 35 35 34 34 35 35 35 36 37 36 36 36 36 35 35 34 35 35 35 35 35 35 35 34 34 33 33 32 31 30 29 29 28 27 26 25 24 23 23 22
37 37 37 36 35 35 34 34 33 33 34 34 34 35 34 34 34 34 34 34 34 34 34 34 34 33 33 33 33 32 31 30 29 29 28 27 26 25 24 24 23 23 23
Wind_Direction
250 251 253 254 255 255 256 258 260 262 264 266 268 269 271 273 275 277 279 281 283 285 287 289 291 293 295 297 299 301 301 302 304 305 306 307 309 311 311 312 312 312 312
249 251 252 254 255 255 257 258 260 263 264 265 267 269 271 273 275 277 279 280 282 284 286 289 291 292 295 297 298 299 300 302 303 304 305 306 308 309 310 311 311 311 311
249 250 252 253 254 255 257 259 262 264 265 266 267 269 271 273 275 276 278 279 280 283 286 288 290 292 294 295 296 297 299 300 302 303 304 305 306 308 309 310 310 310 309
249 250 251 253 254 255 257 260 263 265 265 267 269 270 272 273 275 277 277 278 280 282 284 286 288 290 292 294 295 296 297 299 300 301 302 303 304 305 307 308 308 308 308
249 251 251 252 254 256 258 260 262 264 266 268 269 270 272 273 275 277 277 278 280 282 285 287 289 291 292 293 295 296 297 297 298 299 300 301 302 304 305 306 307 307 306
248 251 253 254 255 257 259 261 262 264 266 267 268 269 271 274 274 276 278 280 282 284 286 287 288 290 292 293 295 295 295 297 297 298 299 300 301 303 304 305 305 305 305
248 251 254 256 257 258 260 262 264 265 266 267 268 269 272 273 274 275 278 280 282 284 285 286 288 290 291 292 293 294 295 296 296 296 297 298 299 301 302 303 303 303 304
249 251 254 257 258 260 262 263 265 265 266 268 268 270 272 272 272 275 277 279 280 282 284 285 287 288 291 292 293 294 295 295 295 295 295 297 298 300 300 301 301 301 301
251 254 256 257 258 259 261 263 264 266 267 268 268 269 271 271 272 273 275 277 279 281 282 284 286 289 290 292 292 293 294 294 294 294 295 295 297 298 299 299 299 298 297
251 253 256 258 258 259 261 262 263 264 266 267 268 268 270 270 272 273 274 276 278 280 281 283 286 289 290 291 292 292 293 294 295 294 295 295 296 297 297 297 297 296 295
253 255 256 257 258 260 260 261 263 264 265 266 267 267 268 269 272 273 274 276 277 279 281 284 287 288 290 290 290 291 293 294 294 294 294 295 295 295 295 295 294 293 292
256 255 256 257 259 261 262 264 264 264 264 265 266 266 267 269 271 273 273 275 278 280 282 283 286 287 288 289 291 291 292 293 293 293 293 293 293 294 294 293 292 291 290
261 261 260 259 261 263 264 263 264 263 263 264 265 266 267 268 270 272 274 276 278 281 282 284 285 286 286 288 290 290 292 292 292 291 292 292 292 292 292 291 290 289 288
262 264 263 261 262 263 264 265 265 265 263 263 264 266 268 269 271 273 275 278 279 280 280 282 283 284 285 288 289 289 290 291 291 290 290 290 290 290 289 289 288 287 286
265 266 265 263 263 265 265 265 266 265 264 264 265 266 267 269 271 273 275 277 278 279 279 279 282 283 284 287 288 289 289 290 290 290 289 289 289 288 288 288 287 285 284
268 268 266 265 265 266 267 266 265 264 263 264 265 265 267 269 270 272 274 274 275 277 278 280 280 283 285 286 287 288 288 289 289 288 288 287 287 286 287 287 286 284 284
270 269 269 268 267 268 268 267 264 263 264 264 263 264 266 267 270 272 271 271 273 276 278 280 281 282 283 285 287 287 286 286 286 286 286 286 285 285 285 284 284 283 282
270 270 270 269 268 268 268 266 266 265 264 263 263 263 265 268 270 270 270 271 274 277 278 279 280 280 281 283 284 284 285 284 284 284 285 285 285 284 284 283 283 281 279
269 271 272 271 269 269 267 265 265 264 263 263 263 264 265 267 268 269 271 272 274 275 277 277 278 279 281 282 283 283 283 283 283 283 283 284 284 283 282 281 281 279 276
271 273 272 272 272 269 266 265 265 263 263 263 264 264 266 268 268 269 270 270 271 273 274 276 277 279 280 280 281 282 281 282 282 281 282 283 282 281 280 279 278 277 274
273 274 272 271 271 269 266 265 263 263 263 265 266 265 266 267 267 268 267 268 269 271 273 275 277 278 278 279 280 280 280 280 281 281 281 281 280 279 278 278 277 275 273
275 274 272 271 271 270 266 265 265 263 264 265 264 263 264 264 265 265 266 267 269 271 273 274 275 276 277 278 279 278 278 279 280 280 279 278 277 277 276 276 275 273 271
276 275 272 272 271 269 267 267 267 266 264 263 264 263 263 262 261 262 265 266 269 271 273 273 273 274 276 276 277 278 277 277 278 278 277 276 275 274 274 274 273 271 268
276 275 274 272 270 268 266 266 266 264 262 261 261 259 259 261 263 263 265 267 269 270 271 271 272 273 273 275 276 277 276 276 275 275 274 273 272 272 272 271 270 267 266
277 275 274 273 269 266 265 264 263 262 261 261 261 261 262 264 264 265 266 267 268 269 270 271 271 272 272 273 275 275 274 273 273 272 272 270 270 270 269 268 267 266 264
278 275 273 272 269 266 263 262 260 260 260 262 263 264 263 263 263 264 265 265 266 268 269 270 271 272 272 273 273 273 272 271 270 270 269 268 268 268 267 267 265 264 261